Florence, SC

11:31 PM EDT on May 26, 2017 (GMT -0400)
Florence Regional

Weather History for KFLO - June, 2013

Change the Weather History Date:

Monday, June 3, 2013

  Actual Average Record
Temperature  
Mean Temperature 78 °F 76 °F  
Max Temperature 86 °F 86 °F 99 °F (1998)
Min Temperature 70 °F 65 °F 50 °F (1966)
Degree Days  
Heating Degree Days 0 0  
Month to date heating degree days 0 0  
Since 1 June heating degree days 0 0  
Since 1 July heating degree days 2335 2523  
Cooling Degree Days 13 11  
Month to date cooling degree days 37 32  
Year to date cooling degree days 304 339  
Since 1 June cooling degree days 37 32  
Growing Degree Days 26 (Base 50)    
Moisture  
Dew Point 71 °F    
Average Humidity 79    
Maximum Humidity 93    
Minimum Humidity 65    
Precipitation  
Precipitation 0.92 in 0.15 in 2.01 in (1982)
Month to date precipitation 0.94 0.45  
Year to date precipitation 19.77 15.81  
Sea Level Pressure  
Sea Level Pressure 29.91 in    
Wind  
Wind Speed 5 mph (South)    
Max Wind Speed 23 mph    
Max Gust Speed 26 mph    
Visibility 8 miles    
Events Rain , Thunderstorm    
T = Trace of Precipitation, MM = Missing Value Source: NWS Daily Summary

Daily Weather History Graph

Daily Weather History Graph

Search for Another Location

Airport or City:

Trip Planner

Search our weather history database for the weather conditions in past years. The results will help you decide how hot, cold, wet, or windy it might be!

Date:

Astronomy

Jun. 03, 2013 Rise Set
Actual Time 6:07 AM EDT 8:26 PM EDT
Civil Twilight 5:38 AM EDT 8:55 PM EDT
Nautical Twilight 5:03 AM EDT 9:31 PM EDT
Astronomical Twilight 4:24 AM EDT 10:10 PM EDT
Moon 2:53 AM EDT (6/3) 4:05 PM EDT (6/3)
Length of Visible Light 15h 17m
Length of Day
14h 19m
Waning Crescent, 22% of the Moon is Illuminated
Jun 3
Waning Crescent
Jun 8
New
Jun 16
First Quarter
Jun 23
Full
Jun 30
Last Quarter

Hourly Weather History & Observations

Time (EDT) Temp. Heat Index Dew Point Humidity Pressure Visibility Wind Dir Wind Speed Gust Speed Precip Events Conditions
12:03 AM 73.4 °F - 71.6 °F 94% 29.98 in 10.0 mi South 3.5 mph - 0.00 in Rain Light Rain
12:13 AM 73.4 °F - 71.6 °F 94% 29.97 in 10.0 mi Calm Calm - 0.00 in Rain Light Rain
12:53 AM 73.9 °F - 71.1 °F 91% 29.95 in 10.0 mi SSE 4.6 mph - 0.01 in   Overcast
1:35 AM 73.4 °F - 71.6 °F 94% 29.96 in 10.0 mi SSE 5.8 mph - 0.00 in   Overcast
1:53 AM 73.9 °F - 72.0 °F 93% 29.94 in 10.0 mi SSE 4.6 mph - 0.00 in   Overcast
2:02 AM 73.4 °F - 71.6 °F 94% 29.95 in 4.0 mi South 4.6 mph - 0.03 in Rain Rain
2:08 AM 73.4 °F - 71.6 °F 94% 29.94 in 1.8 mi South 8.1 mph - 0.13 in Rain Heavy Rain
2:16 AM 73.4 °F - 71.6 °F 94% 29.94 in 1.5 mi SSW 6.9 mph - 0.24 in Rain Heavy Rain
2:26 AM 73.4 °F - 71.6 °F 94% 29.94 in 2.5 mi Variable 5.8 mph - 0.30 in Rain Light Rain
2:33 AM 75.2 °F - 71.6 °F 89% 29.94 in 10.0 mi SSW 10.4 mph 17.3 mph 0.30 in Rain Light Rain
2:51 AM 73.4 °F - 71.6 °F 94% 29.93 in 10.0 mi SSW 4.6 mph - 0.30 in   Overcast
2:53 AM 73.9 °F - 72.0 °F 93% 29.93 in 10.0 mi South 4.6 mph - 0.30 in   Overcast
3:53 AM 73.9 °F - 72.0 °F 93% 29.90 in 10.0 mi South 4.6 mph - N/A   Overcast
4:53 AM 73.9 °F - 72.0 °F 93% 29.90 in 10.0 mi SSW 5.8 mph - N/A   Overcast
5:28 AM 73.4 °F - 71.6 °F 94% 29.90 in 10.0 mi South 5.8 mph - 0.00 in   Overcast
5:35 AM 73.4 °F - 71.6 °F 94% 29.90 in 10.0 mi South 6.9 mph - 0.00 in Rain Light Rain
5:53 AM 73.9 °F - 72.0 °F 93% 29.90 in 10.0 mi South 3.5 mph - 0.00 in   Mostly Cloudy
6:18 AM 73.4 °F - 71.6 °F 94% 29.91 in 10.0 mi SSE 3.5 mph - N/A   Mostly Cloudy
6:45 AM 73.4 °F - 71.6 °F 94% 29.91 in 9.0 mi SSE 3.5 mph - N/A   Mostly Cloudy
6:53 AM 73.9 °F - 72.0 °F 93% 29.91 in 9.0 mi SSE 3.5 mph - N/A   Mostly Cloudy
7:05 AM 73.4 °F - 71.6 °F 94% 29.92 in 8.0 mi SSE 3.5 mph - N/A   Mostly Cloudy
7:17 AM 73.4 °F - 71.6 °F 94% 29.91 in 8.0 mi SE 3.5 mph - 0.00 in Rain Light Rain
7:24 AM 73.4 °F - 71.6 °F 94% 29.91 in 8.0 mi Calm Calm - 0.00 in Rain Light Rain
7:53 AM 73.9 °F - 72.0 °F 93% 29.91 in 9.0 mi SSE 4.6 mph - 0.00 in   Mostly Cloudy
8:20 AM 75.2 °F - 71.6 °F 89% 29.92 in 10.0 mi SSE 5.8 mph - N/A   Overcast
8:53 AM 75.9 °F - 73.0 °F 91% 29.91 in 4.0 mi South 5.8 mph - 0.03 in Rain Light Rain
9:36 AM 75.2 °F - 73.4 °F 94% 29.92 in 10.0 mi SW 6.9 mph - 0.00 in   Overcast
9:53 AM 77.0 °F - 73.0 °F 88% 29.91 in 10.0 mi SW 4.6 mph - 0.00 in   Overcast
10:33 AM 77.0 °F - 73.4 °F 89% 29.91 in 6.0 mi WSW 6.9 mph - 0.02 in Rain Light Rain
10:53 AM 79.0 °F - 73.9 °F 84% 29.90 in 10.0 mi WSW 9.2 mph - 0.02 in   Mostly Cloudy
11:53 AM 82.0 °F 87.4 °F 73.0 °F 74% 29.90 in 10.0 mi WSW 6.9 mph - N/A   Mostly Cloudy
12:53 PM 84.9 °F 90.7 °F 72.0 °F 65% 29.88 in 10.0 mi SW 9.2 mph - N/A   Mostly Cloudy
1:41 PM 77.0 °F - 66.2 °F 69% 29.91 in 2.0 mi NW 23.0 mph 26.5 mph 0.10 in Rain Rain
1:43 PM 75.2 °F - 66.2 °F 73% 29.91 in 1.0 mi NW 17.3 mph 26.5 mph 0.17 in Rain , Thunderstorm Thunderstorms and Rain
1:50 PM 73.4 °F - 69.8 °F 88% 29.89 in 0.8 mi North 5.8 mph - 0.28 in Rain , Thunderstorm Thunderstorms and Rain
1:53 PM 73.0 °F - 69.1 °F 87% 29.88 in 3.0 mi Variable 3.5 mph - 0.28 in Rain Rain
2:00 PM 73.4 °F - 68.0 °F 83% 29.89 in 3.0 mi Calm Calm - 0.01 in Rain Light Rain
2:32 PM 77.0 °F - 69.8 °F 78% 29.89 in 10.0 mi Calm Calm - 0.02 in   Partly Cloudy
2:53 PM 82.0 °F 85.9 °F 70.0 °F 67% 29.87 in 10.0 mi NNE 4.6 mph - 0.02 in   Partly Cloudy
3:37 PM 77.0 °F - 73.4 °F 89% 29.89 in 2.5 mi SSW 8.1 mph - 0.08 in Rain , Thunderstorm Thunderstorms and Rain
3:53 PM 71.1 °F - 69.1 °F 93% 29.87 in 1.5 mi South 13.8 mph 24.2 mph 0.25 in Rain , Thunderstorm Heavy Thunderstorms and Rain
4:01 PM 69.8 °F - 68.0 °F 94% 29.88 in 3.0 mi South 10.4 mph - 0.02 in Rain , Thunderstorm Light Thunderstorms and Rain
4:53 PM 71.1 °F - 66.9 °F 87% 29.87 in 10.0 mi ESE 6.9 mph - 0.02 in Thunderstorm Thunderstorm
4:58 PM 71.6 °F - 68.0 °F 88% 29.87 in 10.0 mi ESE 4.6 mph - N/A   Mostly Cloudy
5:53 PM 75.9 °F - 70.0 °F 82% 29.86 in 10.0 mi SSE 4.6 mph - N/A   Mostly Cloudy
6:53 PM 75.0 °F - 70.0 °F 84% 29.86 in 10.0 mi South 4.6 mph - N/A   Partly Cloudy
7:53 PM 75.9 °F - 71.1 °F 85% 29.88 in 10.0 mi South 3.5 mph - 0.00 in   Partly Cloudy
8:53 PM 73.9 °F - 71.1 °F 91% 29.90 in 10.0 mi South 3.5 mph - N/A   Clear
9:53 PM 73.9 °F - 70.0 °F 87% 29.92 in 10.0 mi SSW 4.6 mph - N/A   Clear
10:53 PM 73.0 °F - 70.0 °F 90% 29.93 in 10.0 mi SSW 4.6 mph - N/A   Clear
11:53 PM 72.0 °F - 70.0 °F 93% 29.94 in 10.0 mi SW 3.5 mph - N/A   Clear